Wallops Island, VA

1:39 AM EST on December 07, 2019 (GMT -0500)
Wallops Flight Facility

Weather History for KWAL - October, 2019

Change the Weather History Date:

Thursday, October 10, 2019

  Actual Average Record
Temperature  
Mean Temperature 65 °F 61 °F  
Max Temperature 75 °F 70 °F 85 °F (2017)
Min Temperature 54 °F 52 °F 38 °F (2000)
Degree Days  
Heating Degree Days 0    
Month to date heating degree days 11  
Since 1 July heating degree days 20  
Cooling Degree Days 0    
Month to date cooling degree days 53  
Year to date cooling degree days 1800  
Growing Degree Days 14 (Base 50)    
Moisture  
Dew Point 51 °F    
Average Humidity 68    
Maximum Humidity 93    
Minimum Humidity 43    
Precipitation  
Precipitation T in 0.10 in 0.67 in (2013)
Month to date precipitation 0.03 1.04  
Year to date precipitation 34.36 32.41  
Sea Level Pressure  
Sea Level Pressure 30.14 in    
Wind  
Wind Speed 10 mph (North)    
Max Wind Speed 21 mph    
Max Gust Speed 26 mph    
Visibility 10 miles    
Events Rain    
T = Trace of Precipitation, MM = Missing Value Source: NWS Daily Summary

Daily Weather History Graph

Daily Weather History Graph

Search for Another Location

Airport or City:

Astronomy

Oct. 10, 2019 Rise Set
Actual Time 7:05 AM EDT 6:31 PM EDT
Civil Twilight 6:39 AM EDT 6:58 PM EDT
Nautical Twilight 6:08 AM EDT 7:28 PM EDT
Astronomical Twilight 5:38 AM EDT 7:58 PM EDT
Moon 5:28 PM EDT (10/10) 3:51 AM EDT (10/10)
Length of Visible Light 12h 18m
Length of Day
11h 26m
Waxing Gibbous, 91% of the Moon is Illuminated
Oct 10
Waxing Gibbous
Oct 13
Full
Oct 21
Last Quarter
Oct 27
New
Nov 4
First Quarter

Hourly Weather History & Observations

Time (EDT) Temp. Dew Point Humidity Pressure Visibility Wind Dir Wind Speed Gust Speed Precip Events Conditions
12:54 AM 55.9 °F 53.1 °F 90% 30.18 in 10.0 mi North 12.7 mph 18.4 mph N/A   Overcast
1:34 AM 55.0 °F 53.1 °F 93% 30.18 in 8.0 mi NNW 13.8 mph - 0.00 in Rain Light Rain
1:54 AM 55.0 °F 54.0 °F 96% 30.17 in 7.0 mi NNW 12.7 mph - 0.00 in Rain Light Rain
2:32 AM 55.0 °F 53.1 °F 93% 30.18 in 10.0 mi NNW 12.7 mph 19.6 mph 0.00 in   Overcast
2:54 AM 55.0 °F 53.1 °F 93% 30.17 in 9.0 mi NNW 10.4 mph 18.4 mph 0.00 in Rain Light Rain
3:54 AM 55.0 °F 52.0 °F 89% 30.17 in 10.0 mi North 11.5 mph 18.4 mph 0.00 in   Overcast
4:12 AM 55.0 °F 52.0 °F 89% 30.18 in 10.0 mi North 13.8 mph 20.7 mph N/A   Overcast
4:54 AM 55.0 °F 52.0 °F 89% 30.17 in 10.0 mi North 13.8 mph - N/A   Overcast
5:54 AM 55.0 °F 51.1 °F 86% 30.17 in 10.0 mi North 10.4 mph 17.3 mph N/A   Overcast
6:54 AM 54.0 °F 50.0 °F 86% 30.18 in 10.0 mi NNW 11.5 mph - N/A   Overcast
7:54 AM 54.0 °F 48.9 °F 83% 30.18 in 10.0 mi NNW 11.5 mph - N/A   Mostly Cloudy
8:11 AM 55.0 °F 48.9 °F 80% 30.20 in 10.0 mi North 9.2 mph - N/A   Scattered Clouds
8:54 AM 55.9 °F 48.9 °F 77% 30.19 in 10.0 mi NNW 10.4 mph - N/A   Mostly Cloudy
9:54 AM 59.0 °F 48.9 °F 69% 30.18 in 10.0 mi North 12.7 mph - N/A   Scattered Clouds
10:54 AM 64.0 °F 50.0 °F 60% 30.18 in 10.0 mi North 10.4 mph - N/A   Scattered Clouds
11:54 AM 66.9 °F 52.0 °F 59% 30.17 in 10.0 mi North 9.2 mph - N/A   Mostly Cloudy
12:54 PM 70.0 °F 52.0 °F 53% 30.14 in 10.0 mi North 11.5 mph 21.9 mph N/A   Scattered Clouds
1:54 PM 73.0 °F 53.1 °F 49% 30.12 in 10.0 mi NNE 17.3 mph 23.0 mph N/A   Scattered Clouds
2:54 PM 73.9 °F 52.0 °F 46% 30.11 in 10.0 mi NE 16.1 mph 21.9 mph N/A   Partly Cloudy
3:54 PM 75.0 °F 52.0 °F 44% 30.09 in 10.0 mi NNE 12.7 mph - N/A   Clear
4:54 PM 73.0 °F 50.0 °F 44% 30.09 in 10.0 mi North 12.7 mph 23.0 mph N/A   Partly Cloudy
5:54 PM 72.0 °F 51.1 °F 48% 30.09 in 10.0 mi North 8.1 mph - N/A   Mostly Cloudy
6:54 PM 68.0 °F 52.0 °F 56% 30.09 in 10.0 mi North 6.9 mph - N/A   Scattered Clouds
7:54 PM 64.9 °F 51.1 °F 61% 30.10 in 10.0 mi North 4.6 mph - N/A   Clear
8:54 PM 64.0 °F 51.1 °F 63% 30.10 in 10.0 mi NNE 8.1 mph - N/A   Clear
9:54 PM 62.1 °F 51.1 °F 67% 30.10 in 10.0 mi NNW 5.8 mph - N/A   Partly Cloudy
10:54 PM 60.1 °F 50.0 °F 69% 30.10 in 10.0 mi North 6.9 mph - N/A   Partly Cloudy
11:54 PM 60.1 °F 46.0 °F 60% 30.10 in 10.0 mi North 6.9 mph - N/A   Clear